TimePDT,TemperatureF,Dew PointF,Humidity,Sea Level PressureIn,VisibilityMPH,Wind Direction,Wind SpeedMPH,Gust SpeedMPH,PrecipitationIn,Events,Conditions,WindDirDegrees,DateUTC
12:53 AM,53.1,42.1,66,30.10,10.0,Calm,Calm,-,N/A,,Clear,0,2012-10-07 07:53:00
1:53 AM,50.0,39.9,68,30.10,10.0,Calm,Calm,-,N/A,,Clear,0,2012-10-07 08:53:00
2:53 AM,50.0,41.0,71,30.10,10.0,Calm,Calm,-,N/A,,Clear,0,2012-10-07 09:53:00
3:53 AM,48.0,42.1,80,30.09,10.0,Calm,Calm,-,N/A,,Clear,0,2012-10-07 10:53:00
4:53 AM,46.9,41.0,80,30.09,10.0,Calm,Calm,-,N/A,,Clear,0,2012-10-07 11:53:00
5:53 AM,46.9,42.1,83,30.09,10.0,Calm,Calm,-,N/A,,Clear,0,2012-10-07 12:53:00
6:53 AM,46.0,41.0,83,30.08,10.0,Calm,Calm,-,N/A,,Clear,0,2012-10-07 13:53:00
7:53 AM,46.0,41.0,83,30.08,10.0,Calm,Calm,-,N/A,,Clear,0,2012-10-07 14:53:00
8:53 AM,48.9,43.0,80,30.09,10.0,SSE,3.5,-,N/A,,Clear,150,2012-10-07 15:53:00
9:53 AM,55.9,42.1,60,30.08,10.0,Calm,Calm,-,N/A,,Clear,0,2012-10-07 16:53:00
10:53 AM,61.0,42.1,50,30.07,10.0,Calm,Calm,-,N/A,,Clear,0,2012-10-07 17:53:00
11:53 AM,64.0,41.0,43,30.05,10.0,Variable,4.6,-,N/A,,Clear,0,2012-10-07 18:53:00
12:53 PM,64.9,41.0,42,30.03,10.0,WNW,5.8,-,N/A,,Clear,300,2012-10-07 19:53:00
1:53 PM,68.0,39.9,36,30.01,10.0,NW,5.8,-,N/A,,Clear,310,2012-10-07 20:53:00
2:53 PM,70.0,37.9,31,29.99,10.0,NW,8.1,-,N/A,,Clear,310,2012-10-07 21:53:00
3:53 PM,71.1,39.9,32,29.96,10.0,NW,5.8,-,N/A,,Clear,310,2012-10-07 22:53:00
4:53 PM,70.0,41.0,35,29.95,10.0,WNW,4.6,-,N/A,,Clear,290,2012-10-07 23:53:00
5:53 PM,68.0,41.0,37,29.93,10.0,NNW,4.6,-,N/A,,Clear,330,2012-10-08 00:53:00
6:53 PM,64.9,42.1,43,29.93,10.0,NW,3.5,-,N/A,,Clear,320,2012-10-08 01:53:00
7:53 PM,61.0,43.0,52,29.93,10.0,Calm,Calm,-,N/A,,Clear,0,2012-10-08 02:53:00
8:53 PM,57.9,44.1,60,29.93,10.0,Calm,Calm,-,N/A,,Clear,0,2012-10-08 03:53:00
9:53 PM,55.0,44.1,67,29.94,10.0,Calm,Calm,-,N/A,,Clear,0,2012-10-08 04:53:00
10:53 PM,55.0,43.0,64,29.93,10.0,Calm,Calm,-,N/A,,Clear,0,2012-10-08 05:53:00
11:53 PM,52.0,43.0,71,29.94,10.0,Calm,Calm,-,N/A,,Clear,0,2012-10-08 06:53:00